Hickory, NC

12:31 AM EDT on August 26, 2016 (GMT -0400)
Hickory Regional

Weather History for KHKY - February, 2012

Change the Weather History Date:

Wednesday, February 22, 2012

  Actual Average Record
Temperature  
Mean Temperature 50 °F -  
Max Temperature 66 °F 55 °F 70 °F (1980)
Min Temperature 33 °F 34 °F 7 °F (1963)
Degree Days  
Heating Degree Days 16    
Moisture  
Dew Point 42 °F    
Average Humidity 74    
Maximum Humidity 93    
Minimum Humidity 42    
Precipitation  
Precipitation 0.27 in - - ()
Sea Level Pressure  
Sea Level Pressure 29.73 in    
Wind  
Wind Speed 5 mph (SW)    
Max Wind Speed 18 mph    
Max Gust Speed 30 mph    
Visibility 8 miles    
Events Rain    
Averages and records for this station are not official NWS values.
T = Trace of Precipitation, MM = Missing Value Source: NWS Daily Summary

Daily Weather History Graph

Daily Weather History Graph

Search for Another Location

Airport or City:

Trip Planner

Search our weather history database for the weather conditions in past years. The results will help you decide how hot, cold, wet, or windy it might be!

Date:

Astronomy

Feb. 22, 2012 Rise Set
Actual Time 7:04 AM EST 6:13 PM EST
Civil Twilight 6:39 AM EST 6:39 PM EST
Nautical Twilight 6:09 AM EST 7:09 PM EST
Astronomical Twilight 5:39 AM EST 7:38 PM EST
Moon 7:05 AM EST (2/22) 7:14 PM EST (2/22)
Length of Visible Light 12h 00m
Length of Day
11h 08m
New Moon, 1% of the Moon is Illuminated
Feb 22
New Moon
Feb 29
First Quarter
Mar 8
Full
Mar 14
Last Quarter
Mar 22
New

Hourly Weather History & Observations

Time (EST) Temp. Dew Point Humidity Pressure Visibility Wind Dir Wind Speed Gust Speed Precip Events Conditions
12:53 AM 44.1 °F 39.0 °F 82% 29.94 in 10.0 mi Calm Calm - N/A   Clear
1:53 AM 39.9 °F 37.0 °F 89% 29.92 in 10.0 mi Calm Calm - N/A   Clear
2:53 AM 41.0 °F 37.0 °F 86% 29.91 in 10.0 mi Calm Calm - N/A   Clear
3:53 AM 39.9 °F 36.0 °F 86% 29.90 in 10.0 mi Calm Calm - N/A   Clear
4:53 AM 39.0 °F 37.0 °F 93% 29.89 in 9.0 mi Calm Calm - N/A   Clear
5:53 AM 36.0 °F 34.0 °F 93% 29.90 in 7.0 mi Calm Calm - N/A   Clear
6:53 AM 34.0 °F 30.9 °F 89% 29.90 in 8.0 mi Calm Calm - N/A   Clear
7:53 AM 33.1 °F 30.9 °F 92% 29.90 in 5.0 mi Calm Calm - N/A   Clear
8:53 AM 43.0 °F 39.0 °F 86% 29.88 in 10.0 mi Calm Calm - N/A   Clear
9:53 AM 50.0 °F 41.0 °F 71% 29.86 in 10.0 mi South 3.5 mph - N/A   Clear
10:53 AM 57.9 °F 39.9 °F 51% 29.82 in 10.0 mi South 6.9 mph - N/A   Clear
11:53 AM 61.0 °F 37.9 °F 42% 29.79 in 10.0 mi SSW 10.4 mph 17.3 mph N/A   Clear
12:53 PM 62.1 °F 43.0 °F 50% 29.75 in 10.0 mi South 17.3 mph 27.6 mph N/A   Clear
1:53 PM 64.9 °F 45.0 °F 48% 29.70 in 10.0 mi South 13.8 mph 25.3 mph N/A   Partly Cloudy
2:53 PM 64.0 °F 45.0 °F 50% 29.66 in 10.0 mi SSW 13.8 mph 24.2 mph N/A   Mostly Cloudy
3:53 PM 66.0 °F 44.1 °F 45% 29.63 in 10.0 mi SSW 17.3 mph 28.8 mph N/A   Overcast
4:53 PM 64.9 °F 42.1 °F 43% 29.60 in 10.0 mi SSW 17.3 mph 25.3 mph N/A   Mostly Cloudy
5:53 PM 62.1 °F 44.1 °F 52% 29.60 in 10.0 mi SSW 13.8 mph 26.5 mph N/A   Clear
6:53 PM 60.1 °F 44.1 °F 55% 29.60 in 10.0 mi South 18.4 mph 29.9 mph N/A   Clear
7:53 PM 59.0 °F 44.1 °F 58% 29.58 in 10.0 mi SSW 17.3 mph 26.5 mph N/A   Clear
8:53 PM 57.0 °F 46.0 °F 67% 29.55 in 10.0 mi SSW 13.8 mph 26.5 mph N/A   Clear
9:53 PM 55.9 °F 46.9 °F 72% 29.54 in 10.0 mi SSW 10.4 mph 19.6 mph N/A   Clear
10:53 PM 50.0 °F 46.9 °F 89% 29.62 in 2.5 mi NNW 12.7 mph 26.5 mph 0.08 in Rain Heavy Rain
10:56 PM 50.0 °F 46.4 °F 87% 29.66 in 3.0 mi NNW 12.7 mph 24.2 mph 0.01 in Rain Heavy Rain
11:04 PM 50.0 °F 46.4 °F 87% 29.67 in 6.0 mi NW 12.7 mph 21.9 mph 0.02 in Rain Rain
11:22 PM 48.2 °F 46.4 °F 93% 29.66 in 3.0 mi NW 6.9 mph - 0.13 in Rain Heavy Rain
11:30 PM 48.2 °F 46.4 °F 93% 29.63 in 2.5 mi Calm Calm - 0.17 in Rain Heavy Rain
11:37 PM 48.2 °F 46.4 °F 93% 29.62 in 5.0 mi Calm Calm - 0.18 in Rain Rain
11:53 PM 48.0 °F 46.0 °F 93% 29.56 in 10.0 mi Calm Calm - 0.19 in   Mostly Cloudy